TimeEDT,TemperatureF,Dew PointF,Humidity,Sea Level PressureIn,VisibilityMPH,Wind Direction,Wind SpeedMPH,Gust SpeedMPH,PrecipitationIn,Events,Conditions,WindDirDegrees,DateUTC
12:20 AM,55.4,53.6,94,30.11,8.0,WNW,3.5,-,N/A,,Overcast,300,2012-10-10 04:20:00
12:53 AM,55.9,54.0,93,30.11,9.0,Calm,Calm,-,N/A,,Overcast,0,2012-10-10 04:53:00
1:34 AM,53.6,53.6,100,30.10,9.0,Calm,Calm,-,N/A,,Scattered Clouds,0,2012-10-10 05:34:00
1:53 AM,54.0,52.0,93,30.10,9.0,Calm,Calm,-,N/A,,Clear,0,2012-10-10 05:53:00
2:22 AM,51.8,51.8,100,30.10,1.5,Calm,Calm,-,N/A,,Clear,0,2012-10-10 06:22:00
2:44 AM,53.6,51.8,94,30.09,2.0,Calm,Calm,-,N/A,,Clear,0,2012-10-10 06:44:00
2:53 AM,53.1,52.0,96,30.09,2.5,Calm,Calm,-,N/A,,Partly Cloudy,0,2012-10-10 06:53:00
3:05 AM,53.6,51.8,94,30.09,1.8,Calm,Calm,-,N/A,,Mostly Cloudy,0,2012-10-10 07:05:00
3:17 AM,51.8,51.8,100,30.09,0.2,West,3.5,-,N/A,Fog,Fog,280,2012-10-10 07:17:00
3:38 AM,51.8,51.8,100,30.08,0.5,WNW,3.5,-,N/A,Fog,Fog,290,2012-10-10 07:38:00
3:48 AM,51.8,51.8,100,30.08,1.0,WNW,3.5,-,N/A,,Mist,300,2012-10-10 07:48:00
3:53 AM,51.1,51.1,100,30.09,0.8,WNW,4.6,-,N/A,,Mist,290,2012-10-10 07:53:00
4:13 AM,51.8,51.8,100,30.08,0.2,Calm,Calm,-,N/A,Fog,Fog,0,2012-10-10 08:13:00
4:53 AM,51.1,51.1,100,30.08,0.2,Calm,Calm,-,N/A,Fog,Fog,0,2012-10-10 08:53:00
5:26 AM,50.0,50.0,100,30.08,0.5,Calm,Calm,-,N/A,Fog,Fog,0,2012-10-10 09:26:00
5:53 AM,50.0,48.9,96,30.08,0.5,WNW,3.5,-,N/A,Fog,Fog,290,2012-10-10 09:53:00
6:21 AM,48.2,48.2,100,30.08,0.2,West,3.5,-,N/A,Fog,Fog,280,2012-10-10 10:21:00
6:53 AM,48.9,48.9,100,30.10,0.2,WSW,3.5,-,N/A,Fog,Fog,250,2012-10-10 10:53:00
7:53 AM,50.0,50.0,100,30.12,0.2,Calm,Calm,-,N/A,Fog,Fog,0,2012-10-10 11:53:00
8:53 AM,52.0,52.0,100,30.13,0.2,West,4.6,-,N/A,Fog,Fog,280,2012-10-10 12:53:00
9:01 AM,51.8,51.8,100,30.13,1.0,WNW,3.5,-,N/A,,Mist,300,2012-10-10 13:01:00
9:18 AM,53.6,51.8,94,30.13,3.0,NNW,5.8,-,N/A,,Overcast,330,2012-10-10 13:18:00
9:36 AM,53.6,53.6,100,30.13,6.0,NNW,4.6,-,N/A,,Overcast,340,2012-10-10 13:36:00
9:53 AM,53.1,52.0,96,30.14,9.0,NW,4.6,-,N/A,,Overcast,320,2012-10-10 13:53:00
10:05 AM,53.6,51.8,94,30.13,10.0,WNW,6.9,-,N/A,,Overcast,300,2012-10-10 14:05:00
10:53 AM,59.0,53.1,81,30.13,10.0,NW,6.9,-,N/A,,Mostly Cloudy,310,2012-10-10 14:53:00
11:00 AM,59.0,51.8,77,30.12,10.0,WNW,6.9,-,N/A,,Scattered Clouds,290,2012-10-10 15:00:00
11:53 AM,64.9,53.1,65,30.12,10.0,NW,8.1,-,N/A,,Clear,320,2012-10-10 15:53:00
12:53 PM,68.0,54.0,61,30.09,10.0,NW,6.9,16.1,N/A,,Clear,320,2012-10-10 16:53:00
1:53 PM,70.0,55.0,59,30.05,10.0,NW,8.1,-,N/A,,Clear,310,2012-10-10 17:53:00
2:53 PM,72.0,55.9,57,30.02,10.0,Variable,6.9,-,N/A,,Clear,0,2012-10-10 18:53:00
3:53 PM,72.0,55.0,55,30.01,10.0,WNW,9.2,-,N/A,,Clear,300,2012-10-10 19:53:00
4:53 PM,72.0,55.9,57,30.00,10.0,NW,8.1,-,N/A,,Clear,320,2012-10-10 20:53:00
5:53 PM,71.1,57.0,61,30.01,10.0,NNW,5.8,-,N/A,,Clear,330,2012-10-10 21:53:00
6:53 PM,64.9,59.0,81,30.03,10.0,Calm,Calm,-,N/A,,Clear,0,2012-10-10 22:53:00
7:53 PM,61.0,57.9,90,30.06,7.0,Calm,Calm,-,N/A,,Clear,0,2012-10-10 23:53:00
8:53 PM,59.0,57.9,96,30.08,5.0,Calm,Calm,-,N/A,,Clear,0,2012-10-11 00:53:00
9:13 PM,57.2,57.2,100,30.08,1.2,Calm,Calm,-,N/A,,Clear,0,2012-10-11 01:13:00
9:25 PM,57.2,57.2,100,30.09,3.0,Calm,Calm,-,N/A,,Clear,0,2012-10-11 01:25:00
9:39 PM,57.2,57.2,100,30.09,1.8,Calm,Calm,-,N/A,,Clear,0,2012-10-11 01:39:00
9:53 PM,57.0,57.0,100,30.10,2.0,Calm,Calm,-,N/A,,Clear,0,2012-10-11 01:53:00
9:58 PM,57.2,55.4,94,30.09,0.8,Calm,Calm,-,N/A,,Clear,0,2012-10-11 01:58:00
10:08 PM,57.2,57.2,100,30.10,2.0,Calm,Calm,-,N/A,,Clear,0,2012-10-11 02:08:00
10:17 PM,57.2,55.4,94,30.10,0.8,Calm,Calm,-,N/A,,Clear,0,2012-10-11 02:17:00
10:32 PM,55.4,55.4,100,30.10,1.8,Calm,Calm,-,N/A,,Clear,0,2012-10-11 02:32:00
10:53 PM,55.9,55.0,97,30.11,1.2,Calm,Calm,-,N/A,,Partly Cloudy,0,2012-10-11 02:53:00
11:01 PM,55.4,55.4,100,30.11,3.0,Calm,Calm,-,N/A,,Clear,0,2012-10-11 03:01:00
11:12 PM,55.4,55.4,100,30.11,1.8,Calm,Calm,-,N/A,,Clear,0,2012-10-11 03:12:00
11:21 PM,55.4,55.4,100,30.11,0.8,Calm,Calm,-,N/A,,Clear,0,2012-10-11 03:21:00
11:35 PM,55.4,55.4,100,30.11,0.2,Calm,Calm,-,N/A,Fog,Fog,0,2012-10-11 03:35:00
11:48 PM,55.4,55.4,100,30.11,1.0,Calm,Calm,-,N/A,,Clear,0,2012-10-11 03:48:00
11:53 PM,54.0,54.0,100,30.12,1.0,Calm,Calm,-,N/A,,Clear,0,2012-10-11 03:53:00